Kalamazoo, MI

7:18 AM EDT on October 21, 2017 (GMT -0400)
Kalamazoo-Battle Creek International

Weather History for KAZO - March, 2014

Change the Weather History Date:

Sunday, March 2, 2014

  Actual Average Record
Temperature  
Mean Temperature 12 °F 31 °F  
Max Temperature 20 °F 39 °F 62 °F (1983)
Min Temperature 3 °F 23 °F -1 °F (1962)
Degree Days  
Heating Degree Days 53 34  
Month to date heating degree days 98 68  
Since 1 July heating degree days 5266 4841  
Cooling Degree Days 0 0  
Month to date cooling degree days 0 0  
Year to date cooling degree days 0 0  
Moisture  
Dew Point 6 °F    
Average Humidity 70    
Maximum Humidity 88    
Minimum Humidity 51    
Precipitation  
Precipitation 0.02 in 0.07 in 0.98 in (2002)
Month to date precipitation 0.08 0.15  
Year to date precipitation 2.61 3.39  
Sea Level Pressure  
Sea Level Pressure 30.31 in    
Wind  
Wind Speed 8 mph (North)    
Max Wind Speed 17 mph    
Max Gust Speed 19 mph    
Visibility 6 miles    
Events Snow    
T = Trace of Precipitation, MM = Missing Value Source: NWS Daily Summary

Daily Weather History Graph

Daily Weather History Graph

Search for Another Location

Airport or City:

Trip Planner

Search our weather history database for the weather conditions in past years. The results will help you decide how hot, cold, wet, or windy it might be!

Date:

Astronomy

Mar. 02, 2014 Rise Set
Actual Time 7:15 AM EST 6:33 PM EST
Civil Twilight 6:47 AM EST 7:01 PM EST
Nautical Twilight 6:15 AM EST 7:33 PM EST
Astronomical Twilight 5:42 AM EST 8:06 PM EST
Moon 7:44 AM EST (3/2) 8:31 PM EST (3/2)
Length of Visible Light 12h 13m
Length of Day
11h 17m
Waxing Crescent, 3% of the Moon is Illuminated
Mar 2
Waxing Crescent
Mar 8
First Quarter
Mar 16
Full
Mar 23
Last Quarter
Mar 30
New

Hourly Weather History & Observations

Time (EST) Temp. Windchill Dew Point Humidity Pressure Visibility Wind Dir Wind Speed Gust Speed Precip Events Conditions
12:02 AM 14.0 °F 2.0 °F 10.0 °F 84% 30.26 in 1.8 mi North 9.2 mph - 0.01 in Snow Light Snow
12:21 AM 12.9 °F -0.9 °F 9.0 °F 84% 30.26 in 2.5 mi North 11.5 mph - 0.01 in Snow Light Snow
12:28 AM 12.9 °F -0.2 °F 9.0 °F 84% 30.26 in 3.0 mi North 10.4 mph - 0.01 in Snow Light Snow
12:40 AM 12.9 °F 1.6 °F 8.1 °F 81% 30.25 in 2.5 mi North 8.1 mph - 0.01 in Snow Light Snow
12:46 AM 12.9 °F 1.6 °F 8.1 °F 81% 30.24 in 3.0 mi North 8.1 mph - 0.01 in Snow Light Snow
12:53 AM 12.9 °F -0.2 °F 8.1 °F 81% 30.30 in 4.0 mi North 10.4 mph - 0.01 in Snow Light Snow
1:24 AM 12.9 °F -0.9 °F 8.1 °F 81% 30.27 in 1.8 mi North 11.5 mph - 0.00 in Snow Light Snow
1:36 AM 12.9 °F 1.6 °F 8.1 °F 81% 30.27 in 2.5 mi North 8.1 mph - 0.00 in Snow Light Snow
1:44 AM 12.9 °F 1.6 °F 8.1 °F 81% 30.28 in 3.0 mi North 8.1 mph - 0.00 in Snow Light Snow
1:53 AM 12.9 °F 2.6 °F 8.1 °F 81% 30.31 in 5.0 mi North 6.9 mph - 0.00 in Snow Light Snow
2:27 AM 12.9 °F 0.7 °F 7.0 °F 77% 30.29 in 2.0 mi North 9.2 mph - 0.00 in Snow Light Snow
2:45 AM 12.9 °F 1.6 °F 8.1 °F 81% 30.29 in 1.2 mi North 8.1 mph - 0.00 in Snow Light Snow
2:53 AM 12.9 °F 2.6 °F 8.1 °F 81% 30.34 in 1.5 mi North 6.9 mph - 0.00 in Snow Light Snow
3:37 AM 12.9 °F 5.2 °F 8.1 °F 81% 30.27 in 2.5 mi North 4.6 mph - 0.01 in Snow Light Snow
3:45 AM 12.9 °F 5.2 °F 8.1 °F 81% 30.27 in 3.0 mi North 4.6 mph - 0.01 in Snow Light Snow
3:53 AM 12.9 °F 2.6 °F 8.1 °F 81% 30.32 in 4.0 mi North 6.9 mph - 0.01 in Snow Light Snow
4:10 AM 12.9 °F 2.6 °F 8.1 °F 81% 30.27 in 2.0 mi North 6.9 mph - 0.00 in Snow Light Snow
4:19 AM 12.9 °F 3.8 °F 8.1 °F 81% 30.27 in 2.0 mi NNE 5.8 mph - 0.00 in Snow Light Snow
4:40 AM 12.9 °F 3.8 °F 7.0 °F 77% 30.26 in 3.0 mi NNE 5.8 mph - 0.00 in Snow Light Snow
4:53 AM 12.9 °F 3.8 °F 8.1 °F 81% 30.32 in 2.5 mi NNE 5.8 mph - 0.01 in Snow Light Snow
5:12 AM 12.0 °F 2.7 °F 7.0 °F 80% 30.28 in 3.0 mi NE 5.8 mph - 0.00 in Snow Light Snow
5:53 AM 12.0 °F 4.1 °F 7.0 °F 80% 30.33 in 7.0 mi NE 4.6 mph - 0.00 in Snow Light Snow
6:53 AM 10.9 °F 2.9 °F 6.1 °F 81% 30.34 in 9.0 mi NE 4.6 mph - 0.00 in Snow Light Snow
7:53 AM 10.9 °F 1.4 °F 5.0 °F 77% 30.33 in 10.0 mi ENE 5.8 mph - 0.00 in   Overcast
8:53 AM 12.0 °F 4.1 °F 5.0 °F 73% 30.36 in 10.0 mi NNE 4.6 mph - N/A   Overcast
9:53 AM 12.9 °F 6.9 °F 5.0 °F 71% 30.35 in 10.0 mi ENE 3.5 mph - N/A   Overcast
10:53 AM 14.0 °F 6.5 °F 6.1 °F 71% 30.34 in 10.0 mi East 4.6 mph - N/A   Overcast
11:53 AM 16.0 °F - 6.1 °F 65% 30.35 in 10.0 mi Calm Calm - N/A   Mostly Cloudy
12:53 PM 17.1 °F - 5.0 °F 59% 30.33 in 10.0 mi Calm Calm - 0.00 in   Mostly Cloudy
1:53 PM 18.0 °F - 6.1 °F 60% 30.31 in 10.0 mi Calm Calm - 0.00 in   Overcast
2:53 PM 19.0 °F 13.9 °F 6.1 °F 57% 30.30 in 10.0 mi SE 3.5 mph - N/A   Overcast
3:53 PM 19.0 °F 6.8 °F 5.0 °F 54% 30.29 in 10.0 mi NNW 11.5 mph - N/A   Mostly Cloudy
4:53 PM 17.1 °F 4.3 °F 6.1 °F 62% 30.31 in 10.0 mi North 11.5 mph - N/A   Overcast
5:53 PM 16.0 °F 2.9 °F 5.0 °F 62% 30.31 in 10.0 mi North 11.5 mph - N/A   Overcast
6:53 PM 14.0 °F -1.4 °F 6.1 °F 71% 30.33 in 10.0 mi North 15.0 mph - N/A   Overcast
7:23 PM 12.9 °F -0.9 °F 5.0 °F 71% 30.29 in 10.0 mi North 11.5 mph - N/A   Overcast
7:48 PM 12.2 °F -1.8 °F 3.2 °F 67% 30.30 in 10.0 mi North 11.5 mph - N/A   Overcast
7:53 PM 12.0 °F -2.0 °F 3.0 °F 67% 30.36 in 10.0 mi North 11.5 mph - N/A   Overcast
8:53 PM 10.0 °F -7.1 °F 1.9 °F 70% 30.38 in 10.0 mi NNW 16.1 mph - N/A   Overcast
9:53 PM 6.1 °F -10.9 °F -2.0 °F 69% 30.39 in 10.0 mi NNW 13.8 mph - N/A   Clear
10:53 PM 3.9 °F -11.3 °F -2.9 °F 73% 30.41 in 10.0 mi North 10.4 mph - N/A   Clear
11:53 PM 3.0 °F -12.5 °F -4.0 °F 73% 30.41 in 10.0 mi North 10.4 mph - N/A   Clear